Location: Bandys
(35.4750°N, 81.0830°W)
Time: 07:12:11
(UTC-04:00)

Daily predictions for brighter satellites

Satellite Brightness Start Highest point End
(mag) Time Altitude Azimuth Time Altitude Azimuth Time Altitude Azimuth
Cosmos 2322 Rocket 2.3 21:05:43 10° NNW 21:11:17 63° ENE 21:16:50 10° SSE
AVUM R/B 3.1 21:13:35 10° S 21:15:36 31° ESE 21:17:47 10° NE
CZ-3C R/B 3.7 21:16:23 10° SW 21:17:33 11° SW 21:18:29 10° SSW
In-Cosmos 22 4.3 21:13:30 10° S 21:19:13 71° E 21:24:58 10° NNE
Cosmos 1980 Rocket 3.5 21:14:51 10° NW 21:20:06 40° WSW 21:25:21 10° S
Cosmos 2360 Rocket 3.4 21:15:58 10° N 21:20:41 26° ENE 21:25:22 10° ESE
YAOGAN 11 4.1 21:16:42 10° SSE 21:20:58 70° ENE 21:25:18 10° N
Envisat 3.9 21:17:01 10° SE 21:21:27 32° ENE 21:25:54 10° N
SL-16 R/B 2.3 21:16:24 10° NNW 21:22:05 72° ENE 21:27:43 10° SSE
FENGYUN 3A 4.0 21:18:08 10° S 21:23:32 71° WSW 21:28:57 10° NNW
Cosmos 2026 Rocket 4.5 21:17:54 10° SSW 21:23:56 65° W 21:30:04 10° N
ERS-1 Rocket 3.1 21:20:28 10° SSE 21:25:23 60° ENE 21:30:21 10° N
Cosmos 1437 4.4 21:25:16 10° SE 21:27:33 18° E 21:29:55 10° NE
Cosmos 1908 4.2 21:28:31 10° NNE 21:32:03 32° E 21:35:08 12° SE
H-2A R/B 2.5 21:28:20 10° SSE 21:32:41 49° ENE 21:37:04 10° N
Cosmos 1777 Rocket 4.0 21:32:35 10° SSW 21:37:52 88° ESE 21:43:09 10° NNE
Cosmos 1328 Rocket 3.6 21:33:24 10° N 21:37:53 88° E 21:42:18 10° S
GPS 2-04 Rocket1 4.0 21:34:40 10° W 21:38:36 32° SSW 21:41:48 14° SE
NOSS 3-1 (C) 4.0 21:35:03 10° S 21:40:08 33° ESE 21:45:34 10° NE
DELTA 2 R/B (1) 3.9 21:35:38 10° WNW 21:41:10 65° NNE 21:46:41 10° E
Cosmos 1674 2.9 21:37:47 10° S 21:41:29 51° E 21:45:14 10° NNE
ATLAS CENTAUR R/B 3.1 21:43:17 10° NW 21:47:04 29° WSW 21:50:36 10° S
Cosmos 1939 Rocket 2.8 21:46:32 12° SSE 21:50:06 74° ENE 21:54:01 10° N
Cosmos 1833 4.2 21:45:43 10° SSW 21:51:26 88° WNW 21:57:09 10° NNE
S3M 4.2 21:46:04 10° N 21:52:10 72° W 21:58:15 10° S
Cosmos 2228 Rocket 4.3 21:51:18 10° NNW 21:55:32 42° W 21:59:48 10° SSW
CZ-2C R/B 0.7 21:55:41 30° WSW 21:55:46 31° W 21:57:03 10° NNW
Cosmos 1300 4.4 21:53:09 10° NNE 21:55:49 18° ENE 21:56:54 16° E
Cosmos 1500 Rocket 4.2 21:52:16 10° SSW 21:56:32 58° W 22:00:54 10° N
Cosmos 405 3.1 21:53:54 10° N 21:57:29 59° E 21:59:43 21° SSE
H-2A R/B 4.1 21:58:30 10° E 22:01:04 14° ENE 22:03:47 10° NNE
Terra 4.1 22:01:21 10° ENE 22:02:00 10° ENE 22:02:39 10° NE
YAOGAN 6 3.6 22:00:51 22° ESE 22:02:18 30° ENE 22:05:31 10° NNE
Cosmos 1437 Rocket 2.8 21:58:32 10° NNW 22:02:21 77° W 22:05:27 15° S
Meteor 2-2 Rocket 4.5 22:00:45 10° N 22:06:47 80° W 22:12:33 11° S
OE (NEXTSAT) 4.3 22:03:42 10° WNW 22:07:17 86° NE 22:08:57 30° ESE
CZ-4 SHROUD 3.2 22:08:08 32° SSE 22:09:24 63° ENE 22:12:30 10° N
COSMOS 2428 3.7 22:04:57 10° N 22:10:01 32° ENE 22:13:00 20° ESE
Cosmos 1680 Rocket 3.6 22:06:04 10° N 22:11:16 62° ENE 22:14:22 24° SE
SPOT 1/Viking Rocket 4.1 22:10:08 23° SE 22:12:52 42° ENE 22:17:43 10° N
Delta 2 Rocket 2.7 22:09:32 10° W 22:13:07 88° S 22:15:00 24° E
CZ-4B R/B 3.7 22:08:56 10° NNE 22:14:07 55° E 22:17:54 18° S
OAO 2 Rocket 3.7 22:09:25 10° SW 22:14:28 44° SSE 22:18:13 17° E
Cosmos 923 Rocket 3.9 22:10:12 10° NNW 22:15:25 89° WSW 22:18:47 22° SSE
MetOp-A 4.1 22:12:54 22° SSE 22:16:25 70° ENE 22:21:45 10° N
ARGOS 3.7 22:18:17 25° SE 22:20:56 43° ENE 22:26:00 10° N
Cosmos 1898 Rocket 3.8 22:19:08 25° SSE 22:21:43 43° ESE 22:26:36 10° NNE
Cosmos 2219 Rocket 3.8 22:18:12 10° N 22:22:17 20° ENE 22:24:46 15° E
CZ-4 R/B 4.2 22:18:34 10° NNE 22:23:18 46° E 22:25:21 29° SSE
Cosmos 1328 3.9 22:21:48 17° SSW 22:24:48 75° W 22:28:46 10° N
FALCON 9 R/B 4.4 21:46:42 10° WSW 22:25:01 83° S 22:33:16 10° E
Cosmos 2150 Rocket 4.3 22:22:49 23° SSE 22:26:00 50° ESE 22:31:16 10° NNE
Cosmos 2151 3.7 22:26:51 10° SSW 22:30:56 52° W 22:35:02 10° N
USA 245 3.0 22:32:07 42° NE 22:32:07 42° NE 22:34:01 10° N
Sich 1 3.2 22:34:24 39° SSE 22:35:43 56° E 22:40:03 10° NNE
SL-08 RB Rocket 4.1 22:34:43 36° ESE 22:35:57 46° ENE 22:40:15 10° N
Cosmos 1633 Rocket 3.1 22:36:53 42° SE 22:38:01 55° E 22:42:18 10° NNE
Cosmos 2219 3.6 22:35:16 10° SSW 22:40:57 64° WNW 22:46:41 10° NNE
Tiangong 1 1.3 22:38:48 10° WSW 22:41:53 66° NNW 22:42:38 45° NE
Cosmos 1726 2.3 22:39:07 10° N 22:42:50 53° E 22:43:05 52° E
NOSS 3-1 (A) 3.2 22:37:31 10° SSW 22:43:17 80° ESE 22:49:38 10° NNE
SPOT 5 3.7 22:43:57 21° SSW 22:46:36 42° W 22:51:06 10° NNW
SL-14 R/B 3.2 22:48:33 49° SSW 22:49:34 84° W 22:53:34 10° N
Cosmos 1703 3.6 22:50:00 47° E 22:50:00 47° E 22:53:34 10° NNE
Cosmos 2315 Rocket 4.1 22:43:51 10° N 22:50:02 71° W 22:53:45 25° S
Cosmos 2333 4.5 22:45:26 10° NNW 22:51:04 56° ENE 22:52:57 39° ESE
Cosmos 2058 3.6 22:49:04 22° SSW 22:51:26 50° W 22:55:25 10° N
Cosmos 1271 Rocket 3.4 22:48:11 10° N 22:51:39 40° ENE 22:51:39 40° ENE
Cosmos 2237 Rocket 3.7 22:47:50 10° N 22:52:24 24° ENE 22:54:11 21° E
Cosmos 1805 Rocket 4.2 22:50:01 21° SSW 22:52:46 54° W 22:57:09 10° N
Cosmos 2322 4.3 22:47:18 10° NNW 22:52:49 51° WSW 22:55:37 27° SSW
Cosmos 2082 4.2 22:52:45 36° ESE 22:53:06 37° ESE 22:58:18 10° NE
Meteor 1-27 4.2 22:49:56 10° N 22:55:38 87° W 22:57:52 39° S
USA 32 4.0 22:55:08 10° N 23:00:23 67° E 23:01:35 50° SE
Iridium 2 4.0 23:01:05 53° ENE 23:01:05 53° ENE 23:04:26 10° NNE
NOAA 11 4.2 23:01:59 42° S 23:03:55 79° WSW 23:09:23 10° NNW
Cosmos 2360 Rocket 3.2 22:59:32 10° NW 23:04:43 38° WSW 23:07:20 24° SSW
ATLAS 2AS CENTAUR R/B 3.2 23:03:26 38° SSE 23:05:36 47° ESE 23:13:04 10° NE
Meteor 2-10 4.4 23:01:45 10° N 23:07:25 60° E 23:08:39 49° SE
Meteor 1-4 Rocket 2.8 23:06:29 10° N 23:09:49 67° NNE 23:09:49 67° NNE
Cosmos 1707 Rocket 4.4 23:10:18 10° NNW 23:14:27 44° W 23:15:29 37° SW
Nadezhda 1 Rocket 4.0 23:10:08 10° N 23:16:09 61° E 23:17:27 50° SE
SL-23 DEB 4.1 23:12:35 10° NW 23:16:05 54° W 23:16:05 54° W
Cosmos 1626 3.3 23:20:38 36° NE 23:20:38 36° NE 23:23:05 10° NNE
IGS 5A 3.7 23:21:56 59° NE 23:21:56 59° NE 23:25:41 10° N
Cosmos 1937 Rocket 3.7 23:20:02 37° SW 23:22:06 69° WNW 23:27:18 10° NNE
Cosmos 220 Rocket 4.3 23:22:01 57° WSW 23:22:39 66° WNW 23:27:04 10° NNE
Landsat 7 3.8 23:22:40 67° SSW 23:23:12 75° WSW 23:27:58 10° NNW
Cosmos 1745 Rocket 4.0 23:22:21 41° SSW 23:24:43 81° W 23:30:56 10° N
ATLAS 3B R/B 4.2 23:21:09 10° N 23:26:54 26° NE 23:30:03 19° E
DELTA 2 R/B (1) 3.7 23:22:12 10° WNW 23:27:36 55° SSW 23:27:36 55° SSW
Cosmos 2227 Rocket 2.0 23:27:04 61° S 23:28:05 81° ESE 23:33:46 10° NNE
Cosmos 1470 Rocket 3.5 23:28:46 77° NW 23:28:46 77° NW 23:32:57 10° N
Cosmos 1933 Rocket 3.6 23:29:58 80° WNW 23:29:58 80° WNW 23:34:24 10° N
Cosmos 292 Rocket 3.6 23:26:38 10° NNW 23:31:25 80° WSW 23:31:27 80° WSW
Cosmos 1709 Rocket 4.2 23:32:45 49° ESE 23:33:08 50° E 23:39:00 10° NNE
Cosmos 990 Rocket 4.0 23:33:44 60° SW 23:34:37 75° WNW 23:39:47 10° NNE
Terra 1.8 23:39:02 75° WSW 23:39:03 75° WSW 23:43:50 10° NNW
Spot 4 3.7 23:39:32 84° NE 23:39:32 84° NE 23:44:19 10° N
H-2A R/B 2.2 23:39:08 61° SW 23:39:47 68° WSW 23:45:12 10° NNW
Spot 2 4.4 23:36:14 10° N 23:41:20 78° WNW 23:41:41 73° WSW
Cosmos 2333 Rocket 2.1 23:36:59 10° NNW 23:42:45 73° ENE 23:43:13 69° ESE
SL-16 R/B 3.4 23:40:16 10° N 23:45:08 28° ENE 23:45:52 28° ENE
NOSS 0 Rocket 3.7 23:42:25 10° NNW 23:48:36 87° WSW 23:49:18 72° SSE
COSMOS 2428 3.9 23:49:15 10° NW 23:54:09 30° WSW 23:55:01 29° WSW
Cosmos 1455 3.5 23:50:38 10° NNW 23:53:11 38° NNW 23:53:11 38° NNW
